{"data":{"norad_id":63836,"intl_designator":"2025-093A","name":"STARLINK-34018","alt_names":[],"object_type":"PAYLOAD","status":"ACTIVE","operator":null,"country":"US","launch_date":"2025-05-07","launch_site_code":"AFETR","launch_vehicle":null,"mission":null,"orbit_class":"UNKNOWN","rcs_meters":null,"size_class":null,"mass_kg":null,"dimensions":null,"purposes":["comms"],"wikipedia_slug":null,"has_3d_model":false,"image_url":null,"decayed_at":null,"tle_current":{"epoch":"2026-05-25T00:21:20.867040Z","epoch_age_seconds":64023,"freshness":"FRESH","line1":"1 63836U 25093A   26145.01482485  .00004663  00000+0  17886-3 0  9996","line2":"2 63836  43.0065   6.9939 0002223 286.1163  73.9444 15.27582852 59648","mean_motion":15.27582852,"eccentricity":0.0002223,"inclination_deg":43.0065,"raan_deg":6.9939,"arg_perigee_deg":286.1163,"mean_anomaly_deg":73.9444,"bstar":0.00017886,"rev_number":5964,"period_min":94.266572717458,"perigee_km":481.51531636821,"apogee_km":484.56579590967,"semimajor_km":6861.1775561389,"source":"CELESTRAK","updated_at":"2026-05-25T13:38:20.145774Z"}}}